Starlink 5928

operational
NORAD ID: 55958 Int'l Des: 2023-037 Owner: SPXS Country: US Constellation: starlink
LEOCIRCULAR

Über Starlink 5928

Beschreibung wird geladen...

Live-Position

3D-Globus wird geladen...

Nächste Überflüge

Höhenverlauf

Altitude vs Time

uPlot chart will show altitude changes over time

Zweizeiliger Elementsatz

1 55958U 23037AW 25304.18049172 .00001724 00000-0 15228-3 0 9998
2 55958 69.9997 231.0058 0002747 260.4936 99.5912 14.98329981145078
Epoch: 31. Okt. 2025 • Age: 9 hours

Aktueller Status

Höhe 584.7 km
Geschwindigkeit 7.57 km/s
Subsatellitenpunkt -37.42°S, 32.68°W
Startdatum 17. März 2023
Alter 2.6 years
Typ internet

Technische Details

Klassifizierung Payload
Masse 305.00 kg
Trockenmasse 290.00 kg
Gesamtmasse 305.00 kg
Länge 0.20 m
Durchmesser 2.80 m
Spannweite 9.00 m
Form Box + pan
Hersteller SPXS
Bus-Typ Starlink
Phasenstatus In Orbit
Besitzer/Staat SPXS/US

Große Konstellationen

Loading constellations...